Location: Kvarnån
(66.4000°N, 22.2667°E)
Time: 20:31:27
(UTC+00:00)

Cosmos 1328 - Pass Details

Date: 15 October 2024
Orbit: 491 x 512 km, 82.5° (Epoch: 05 November)

Event Time Altitude Azimuth Distance (km) Brightness Sun altitude
Rises 17:38:20 0° 341° (NNW) 2,621 7.8 -16.2°
Reaches altitude 10° 17:40:30 10° 338° (NNW) 1,727 6.9 -16.5°
Maximum altitude 17:44:12 58° 259° (W) 591 4.2 -16.8°
Drops below altitude 10° 17:47:52 10° 180° (S) 1,701 6.1 -17.2°
Enters shadow 17:48:23 - 179° (S) 1,913 6.4 -17.2°
